FW5754 Weather Reports


Display with metric or nautical units.
time (UTC)temp
F
wind
direction
speed
MPH
gust
MPH
rain 1hr
in
rain 24hr
in
rain mn
in
humidity
%
barometer
mb
20260506073038 -52 191 8.0 27.0 0.00 0.00 0.00 1011.9
20260506072533 59 186 11.0 26.0 0.00 0.00 0.00 80 1011.8
20260506072033 59 168 9.0 22.0 0.00 0.00 0.00 80 1011.8
20260506071549 59 188 8.0 30.0 0.00 0.00 0.00 80 1012.0
20260506071033 59 198 7.0 30.0 0.00 0.00 0.00 80 1011.9
20260506070534 59 190 12.0 28.0 0.00 0.00 0.00 80 1011.8
20260506062035 59 202 9.0 22.0 0.00 0.00 0.00 80 1012.0
20260506061537 59 189 9.0 24.0 0.00 0.00 0.00 80 1011.9
20260506061031 59 195 9.0 24.0 0.00 0.00 0.00 80 1011.9
20260506060532 -52 259 9.0 24.0 0.00 0.00 0.00 100 1011.9
20260506051033 -54 198 6.0 20.0 0.00 0.00 0.00 1012.4
20260506050530 -52 190 9.0 21.0 0.00 0.00 0.00 1012.3
20260506045032 59 225 8.0 25.0 0.00 0.00 0.00 79 1012.3
20260506044546 59 186 9.0 25.0 0.00 0.00 0.00 79 1012.3
20260506044031 59 173 8.0 19.0 0.00 0.00 0.00 78 1012.2
20260506043530 60 157 9.0 23.0 0.00 0.00 0.00 78 1012.3
20260506043039 60 198 8.0 23.0 0.00 0.00 0.00 78 1012.2
20260506042531 60 178 7.0 22.0 0.00 0.00 0.00 100 1012.4
20260506042031 -50 170 9.0 25.0 0.00 0.00 0.00 1012.4
20260506041539 -50 167 9.0 26.0 0.00 0.00 0.00 1012.3
20260506041032 -50 182 11.0 31.0 0.00 0.00 0.00 1012.4
20260506040530 60 184 9.0 31.0 0.00 0.00 0.00 76 1012.4
20260506040039 60 202 11.0 29.0 0.00 0.00 0.00 76 1012.4
20260506035533 60 183 10.0 27.0 0.00 0.00 0.00 76 1012.5
20260506035034 60 239 10.0 27.0 0.00 0.00 0.00 76 1012.3
20260506034539 60 189 9.0 22.0 0.00 0.00 0.00 75 1012.4
20260506034030 60 214 8.0 22.0 0.00 0.00 0.00 75 1012.4
20260506033531 60 175 10.0 26.0 0.00 0.00 0.00 75 1012.4
20260506033043 60 198 9.0 26.0 0.00 0.00 0.00 75 1012.4
20260506032530 60 185 10.0 29.0 0.00 0.00 0.00 75 1012.7
20260506032031 60 173 8.0 29.0 0.00 0.00 0.00 75 1012.4
20260506031539 61 211 8.0 22.0 0.00 0.00 0.00 75 1012.5
20260506031034 61 206 9.0 22.0 0.00 0.00 0.00 75 1012.4
20260506030532 61 190 10.0 22.0 0.00 0.00 0.00 75 1012.5
20260506030056 61 182 8.0 22.0 0.00 0.00 0.00 74 1012.5
20260506025530 61 182 9.0 31.0 0.00 0.00 0.00 74 1012.4
20260506025034 61 196 10.0 31.0 0.00 0.00 0.00 74 1012.3
20260506024550 61 211 9.0 28.0 0.00 0.00 0.00 74 1012.4
20260506024031 61 187 9.0 32.0 0.00 0.00 0.00 73 1012.3
20260506023531 61 201 10.0 32.0 0.00 0.00 0.00 73 1012.5
20260506023036 61 193 9.0 25.0 0.00 0.00 0.00 73 1012.5
20260506022530 61 222 8.0 26.0 0.00 0.00 0.00 73 1012.3
20260506022030 61 166 10.0 26.0 0.00 0.00 0.00 73 1012.3
20260506021540 61 224 7.0 27.0 0.00 0.00 0.00 73 1012.3
20260506021030 61 189 8.0 27.0 0.00 0.00 0.00 73 1012.3
20260506020534 62 202 8.0 27.0 0.00 0.00 0.00 72 1012.4
20260506020039 62 233 11.0 27.0 0.00 0.00 0.00 72 1012.3
20260506015531 62 167 8.0 27.0 0.00 0.00 0.00 72 1012.4
20260506015033 62 217 12.0 27.0 0.00 0.00 0.00 72 1012.3
20260506014552 62 211 10.0 28.0 0.00 0.00 0.00 72 1012.2
20260506014030 62 246 9.0 29.0 0.00 0.00 0.00 72 1012.2
20260506013531 62 200 11.0 29.0 0.00 0.00 0.00 72 1011.9
20260506013037 62 186 9.0 30.0 0.00 0.00 0.00 72 1012.1
20260506012531 62 186 11.0 30.0 0.00 0.00 0.00 72 1012.0
20260506012032 62 226 11.0 32.0 0.00 0.00 0.00 72 1012.1
20260506011541 62 217 12.0 32.0 0.00 0.00 0.00 72 1012.0
20260506011035 62 156 12.0 24.0 0.00 0.00 0.00 72 1011.8
20260506010531 62 164 11.0 32.0 0.00 0.00 0.00 72 1011.8
20260506010049 62 186 13.0 32.0 0.00 0.00 0.00 72 1011.8
20260506005531 61 193 11.0 26.0 0.00 0.00 0.00 72 1011.6
20260506005030 61 190 12.0 24.0 0.00 0.00 0.00 72 1011.6
20260506004548 62 206 9.0 24.0 0.00 0.00 0.00 72 1011.5
20260506004030 62 197 10.0 24.0 0.00 0.00 0.00 72 1011.4
20260506003531 62 187 9.0 25.0 0.00 0.00 0.00 72 1011.4
20260506003043 62 234 9.0 27.0 0.00 0.00 0.00 72 1011.4
20260506002530 62 211 11.0 27.0 0.00 0.00 0.00 72 1011.2
20260506002031 62 180 9.0 27.0 0.00 0.00 0.00 72 1011.2
20260506001546 62 202 9.0 28.0 0.00 0.00 0.00 72 1010.9
20260506001031 62 176 10.0 30.0 0.00 0.00 0.00 72 1010.8
20260506000531 61 219 10.0 30.0 0.00 0.00 0.00 72 1010.9
20260506000042 61 178 10.0 26.0 0.00 0.00 0.00 73 1010.8
20260505235530 61 165 11.0 22.0 0.00 0.00 0.00 73 1010.7
20260505235031 61 148 7.0 21.0 0.00 0.00 0.00 73 1010.8
20260505234539 61 193 9.0 22.0 0.00 0.00 0.00 72 1010.7
20260505234033 61 209 9.0 22.0 0.00 0.00 0.00 72 1010.6
20260505233530 62 208 8.0 22.0 0.00 0.00 0.00 72 1010.5
20260505233044 62 184 10.0 27.0 0.00 0.00 0.00 72 1010.5
20260505232530 62 199 11.0 27.0 0.00 0.00 0.00 72 1010.4
20260505232030 62 190 9.0 27.0 0.00 0.00 0.00 72 1010.4
20260505231544 62 202 8.0 25.0 0.00 0.00 0.00 72 1010.5
20260505231031 62 193 10.0 29.0 0.00 0.00 0.00 72 1010.3
20260505230530 62 192 9.0 29.0 0.00 0.00 0.00 72 1010.3
20260505230048 62 205 12.0 29.0 0.00 0.00 0.00 72 1010.2
20260505225530 62 193 8.0 29.0 0.00 0.00 0.00 72 1010.2
20260505225033 62 182 10.0 29.0 0.00 0.00 0.00 72 1010.2
20260505224550 62 190 10.0 27.0 0.00 0.00 0.00 72 1010.1
20260505224031 62 192 8.0 23.0 0.00 0.00 0.00 72 1010.0
20260505223530 62 236 8.0 23.0 0.00 0.00 0.00 72 1010.2
20260505223050 62 195 8.0 25.0 0.00 0.00 0.00 72 1010.1
20260505222531 62 198 7.0 25.0 0.00 0.00 0.00 72 1010.0
20260505222033 62 189 8.0 25.0 0.00 0.00 0.00 72 1009.9
20260505221545 62 242 10.0 25.0 0.00 0.00 0.00 72 1009.8
20260505221031 62 169 8.0 23.0 0.00 0.00 0.00 72 1009.8
20260505220532 62 196 9.0 23.0 0.00 0.00 0.00 72 1009.8
20260505220045 62 229 8.0 20.0 0.00 0.00 0.00 72 1009.7
20260505215530 62 137 9.0 20.0 0.00 0.00 0.00 72 1009.7
20260505215030 62 157 8.0 22.0 0.00 0.00 0.00 72 1009.8
20260505214540 62 190 10.0 23.0 0.00 0.00 0.00 72 1009.8
20260505214029 62 184 7.0 25.0 0.00 0.00 0.00 72 1009.8
20260505213534 61 198 8.0 25.0 0.00 0.00 0.00 72 1009.9
20260505213045 62 174 8.0 18.0 0.00 0.00 0.00 72 1009.7
20260505212533 -50 155 7.0 24.0 0.00 0.00 0.00 1009.7
20260505212030 62 175 8.0 24.0 0.00 0.00 0.00 72 1009.7
20260505211545 62 175 7.0 17.0 0.00 0.00 0.00 72 1009.6
20260505211032 62 190 7.0 17.0 0.00 0.00 0.00 72 1009.5
20260505210530 62 184 7.0 17.0 0.00 0.00 0.00 72 1009.7
20260505210045 63 161 7.0 16.0 0.00 0.00 0.00 71 1009.5
20260505205534 63 142 8.0 21.0 0.00 0.00 0.00 71 1009.6
20260505205030 63 171 9.0 21.0 0.00 0.00 0.00 71 1009.7
20260505204540 63 209 6.0 21.0 0.00 0.00 0.00 72 1009.5
20260505204034 63 161 9.0 21.0 0.00 0.00 0.00 71 1009.5
20260505203530 63 202 7.0 21.0 0.00 0.00 0.00 71 1009.5
20260505203044 63 164 8.0 22.0 0.00 0.00 0.00 1009.5
20260505202529 -49 179 9.0 22.0 0.00 0.00 0.00 91 1009.6
20260505202030 -49 135 8.0 24.0 0.00 0.00 0.00 1009.7
20260505201545 -48 188 9.0 24.0 0.00 0.00 0.00 1009.6
20260505201030 -47 187 8.0 17.0 0.00 0.00 0.00 1009.7
20260505200530 66 220 6.0 17.0 0.00 0.00 0.00 70 1009.8
20260505200039 66 182 7.0 19.0 0.00 0.00 0.00 70 1009.8
20260505195533 65 202 5.0 21.0 0.00 0.00 0.00 71 1009.8
20260505195029 65 179 5.0 21.0 0.00 0.00 0.00 71 1009.9
20260505194547 65 188 7.0 21.0 0.00 0.00 0.00 70 1009.9
20260505194031 64 186 6.0 20.0 0.00 0.00 0.00 72 1010.1
20260505193534 63 166 7.0 19.0 0.00 0.00 0.00 72 1010.2
20260505193052 63 149 6.0 19.0 0.00 0.00 0.00 72 1010.3
20260505192530 63 157 6.0 21.0 0.00 0.00 0.00 73 1010.5
20260505192029 62 188 9.0 21.0 0.00 0.00 0.00 72 1010.6
20260505191544 63 175 9.0 17.0 0.00 0.00 0.00 72 1010.4
20260505191033 63 182 8.0 19.0 0.00 0.00 0.00 73 1010.5
20260505190534 62 199 9.0 27.0 0.00 0.00 0.00 72 1010.4
20260505190042 62 231 9.0 27.0 0.00 0.00 0.00 73 1010.5
20260505185530 62 178 8.0 24.0 0.00 0.00 0.00 73 1010.4
20260505185030 62 178 11.0 24.0 0.00 0.00 0.00 73 1010.4
20260505184539 62 198 11.0 24.0 0.00 0.00 0.00 73 1010.8
20260505184038 -49 179 10.0 23.0 0.00 0.00 0.00 1010.7
20260505183534 -49 188 9.0 20.0 0.00 0.00 0.00 1010.8
20260505183040 -50 167 11.0 20.0 0.00 0.00 0.00 1010.8
20260505182534 -49 188 9.0 20.0 0.00 0.00 0.00 1011.0
20260505182034 -49 140 9.0 20.0 0.00 0.00 0.00 1010.9
20260505181537 -49 184 7.0 19.0 0.00 0.00 0.00 1010.9
20260505181033 -49 184 8.0 19.0 0.00 0.00 0.00 100 1011.0
20260505180534 -49 170 6.0 16.0 0.00 0.00 0.00 1011.0
20260505180047 62 146 7.0 17.0 0.00 0.00 0.00 73 1011.0
20260505175535 62 195 6.0 18.0 0.00 0.00 0.00 74 1011.1
20260505175035 62 182 9.0 20.0 0.00 0.00 0.00 73 1011.1
20260505174546 62 174 10.0 23.0 0.00 0.00 0.00 73 1011.0
20260505174035 62 177 10.0 23.0 0.00 0.00 0.00 73 1011.0
20260505173534 62 167 9.0 22.0 0.00 0.00 0.00 73 1011.2
20260505173046 62 217 8.0 19.0 0.00 0.00 0.00 72 1011.0
20260505172534 63 136 9.0 19.0 0.00 0.00 0.00 73 1011.1
20260505172034 63 204 6.0 20.0 0.00 0.00 0.00 73 1011.1
20260505171545 62 155 8.0 20.0 0.00 0.00 0.00 73 1011.2
20260505171034 62 186 9.0 20.0 0.00 0.00 0.00 73 1011.1
20260505170536 62 177 9.0 20.0 0.00 0.00 0.00 73 1011.1
20260505170044 62 161 7.0 27.0 0.00 0.00 0.00 74 1011.3
20260505165534 62 169 11.0 27.0 0.00 0.00 0.00 73 1011.2
20260505165034 -49 185 9.0 22.0 0.00 0.00 0.00 1011.2
20260505164544 63 163 9.0 20.0 0.00 0.00 0.00 72 1011.1
20260505164035 63 151 10.0 16.0 0.00 0.00 0.00 72 1011.1
20260505163535 63 139 6.0 16.0 0.00 0.00 0.00 73 1011.4
20260505163042 63 193 6.0 16.0 0.00 0.00 0.00 72 1011.4
20260505162534 63 177 8.0 16.0 0.00 0.00 0.00 72 1011.4
20260505162034 64 150 9.0 16.0 0.00 0.00 0.00 71 1011.4
20260505161546 65 179 7.0 14.0 0.00 0.00 0.00 71 1011.6
20260505161036 65 142 7.0 14.0 0.00 0.00 0.00 72 1011.5
20260505160536 65 186 8.0 13.0 0.00 0.00 0.00 71 1011.7
20260505153048 62 178 8.0 17.0 0.00 0.00 0.00 73 1012.0
20260505152529 62 159 7.0 17.0 0.00 0.00 0.00 74 1011.9
20260505152036 62 175 9.0 21.0 0.00 0.00 0.00 74 1011.8
20260505151541 61 153 9.0 21.0 0.00 0.00 0.00 75 1011.9
20260505151030 -50 185 11.0 20.0 0.00 0.00 0.00 100 1011.9
20260505150530 -50 195 7.0 18.0 0.00 0.00 0.00 1011.9
20260505140530 59 165 9.0 16.0 0.00 0.00 0.00 77 1011.9
20260505130104 62 188 4.0 15.0 0.00 0.00 0.00 75 1012.0
20260505125031 62 194 5.0 12.0 0.00 0.00 0.00 75 1012.0
20260505124603 62 194 4.0 10.0 0.00 0.00 0.00 75 1012.0
20260505124030 61 194 2.0 10.0 0.00 0.00 0.00 76 1012.0
20260505123533 61 197 4.0 9.0 0.00 0.00 0.00 76 1012.0
20260505123112 61 188 5.0 10.0 0.00 0.00 0.00 76 1012.0
20260505122530 61 186 3.0 10.0 0.00 0.00 0.00 76 1012.0
20260505122031 -50 188 3.0 12.0 0.00 0.00 0.00 1012.0
20260505121538 -50 188 4.0 12.0 0.00 0.00 0.00 77 1012.0
20260505121035 -50 187 4.0 12.0 0.00 0.00 0.00 1012.1
20260505120532 -50 188 3.0 9.0 0.00 0.00 0.00 1012.1
20260505120055 -50 187 3.0 9.0 0.00 0.00 0.00 1012.1
20260505115531 -52 173 3.0 10.0 0.00 0.00 0.00 1012.1
20260505115031 -52 215 4.0 13.0 0.00 0.00 0.00 1012.1
20260505114549 -52 244 5.0 13.0 0.00 0.00 0.00 1012.2
20260505114031 -52 211 3.0 13.0 0.00 0.00 0.00 1011.9
20260505113534 158 0 2.0 12.0 0.00 0.00 0.00 1011.8
20260505113045 -54 179 5.0 12.0 0.00 0.00 0.00 1012.0
20260505112531 -56 229 5.0 15.0 0.00 0.00 0.00 1011.7
20260505112033 -56 199 5.0 15.0 0.00 0.00 0.00 1011.6
20260505111540 57 201 5.0 14.0 0.00 0.00 0.00 82 1011.6
20260505111033 -56 207 5.0 11.0 0.00 0.00 0.00 1011.7
20260505110530 -56 201 3.0 10.0 0.00 0.00 0.00 1011.7
20260505102029 55 199 3.0 10.0 0.00 0.00 0.00 83 1011.4
20260505101538 55 207 3.0 9.0 0.00 0.00 0.00 83 1011.3
20260505101034 55 174 3.0 10.0 0.00 0.00 0.00 83 1011.3
20260505100531 55 173 5.0 11.0 0.00 0.00 0.00 83 1011.2
20260505100041 55 167 4.0 11.0 0.00 0.00 0.00 83 1011.2
20260505095531 55 171 4.0 11.0 0.00 0.00 0.00 83 1011.2
20260505095030 55 154 3.0 10.0 0.00 0.00 0.00 82 1011.1
20260505094550 55 194 4.0 10.0 0.00 0.00 0.00 82 1011.1
20260505094030 55 217 2.0 6.0 0.00 0.00 0.00 82 1011.1
20260505093529 55 217 2.0 10.0 0.00 0.00 0.00 82 1011.3
20260505093047 55 218 3.0 11.0 0.00 0.00 0.00 82 1011.2
20260505092531 55 209 4.0 11.0 0.00 0.00 0.00 82 1011.2
20260505092031 55 201 5.0 11.0 0.00 0.00 0.00 1011.1
20260505091556 -61 201 4.0 13.0 0.00 0.00 0.00 1011.2
20260505091034 -61 211 4.0 13.0 0.00 0.00 0.00 100 1011.0
20260505090534 -61 178 4.0 11.0 0.00 0.00 0.00 1011.0
20260505090050 -61 213 3.0 9.0 0.00 0.00 0.00 1011.0
20260505085531 -61 226 2.0 8.0 0.00 0.00 0.00 1011.1
20260505085031 -61 227 3.0 17.0 0.00 0.00 0.00 1011.2
20260505084558 -61 194 5.0 18.0 0.00 0.00 0.00 1011.0
20260505084030 55 178 6.0 19.0 0.00 0.00 0.00 1010.9
20260505083530 -61 175 6.0 19.0 0.00 0.00 0.00 1010.8
20260505083058 -61 171 7.0 18.0 0.00 0.00 0.00 1010.6
20260505082531 -61 159 6.0 15.0 0.00 0.00 0.00 1010.8
20260505082031 -61 175 6.0 15.0 0.00 0.00 0.00 1010.9
20260505081558 -61 189 6.0 15.0 0.00 0.00 0.00 1010.7
20260505081035 -61 173 7.0 13.0 0.00 0.00 0.00 1010.8
20260505080533 -61 216 5.0 16.0 0.00 0.00 0.00 1010.8